Theta_e
315 311 310 309 308 308 309 310 313 312 313 313 314 315 316 316 316 317 317 316 317 316
314 311 310 309 309 308 309 310 312 313 313 313 314 314 316 316 314 317 317 317 317 316
312 311 310 309 308 308 308 310 311 312 313 313 313 314 315 315 314 315 315 316 316 316
311 311 309 308 307 307 308 310 311 312 313 312 312 313 314 314 313 314 313 315 315 315
311 310 307 307 307 307 307 310 311 312 312 312 312 312 313 312 312 312 312 313 314 313
309 308 307 306 306 307 307 308 310 311 311 311 312 311 313 312 312 313 313 313 313 313
308 307 306 306 306 306 307 308 309 310 311 311 311 311 311 312 312 313 313 314 314 313
307 307 306 305 305 305 306 307 309 309 310 311 311 310 310 312 312 311 312 312 313 313
306 306 305 304 304 304 305 306 308 308 309 309 309 300 300 307 311 311 310 310 310 305
306 304 304 303 303 303 303 305 306 307 308 309 309 298 298 298 310 309 310 310 309 304
304 303 303 302 302 302 303 304 305 307 308 308 308 297 296 296 309 309 308 309 308 305
304 303 302 301 301 302 303 303 304 306 307 307 303 295 296 301 306 305 305 306 308 306
305 303 302 302 301 302 303 302 303 304 307 300 305 294 295 302 305 303 302 302 301 291
303 302 303 302 301 301 301 301 300 299 302 303 303 297 295 298 304 303 300 298 294 296
Wind_Speed
17 11 10 12 10 8 8 8 10 8 7 7 6 5 4 3 3 3 4 5 4 7
16 15 12 13 11 9 9 8 10 9 8 8 7 6 5 4 4 4 4 5 7 9
16 14 13 12 12 12 10 11 11 9 9 9 8 6 6 5 5 6 4 5 9 9
15 15 13 12 11 12 12 12 11 10 10 9 9 7 6 6 6 7 7 6 8 10
15 15 14 13 13 13 12 12 11 11 10 9 9 8 7 7 6 7 9 8 9 10
16 15 14 13 13 13 13 12 11 11 10 10 9 8 7 6 6 7 8 9 9 10
15 15 14 14 13 12 13 13 12 11 10 9 9 8 8 7 7 7 7 7 8 9
14 14 14 14 13 12 12 11 11 11 10 9 8 7 9 8 8 8 9 8 7 6
14 14 14 14 13 12 12 12 12 11 10 10 6 10 10 9 8 8 9 10 8 7
14 14 14 14 14 13 13 13 12 11 11 10 8 11 10 9 7 7 8 9 9 7
14 14 13 13 13 13 12 13 12 11 11 10 8 13 12 11 7 7 7 8 9 9
14 15 14 14 14 12 12 11 11 11 11 11 8 12 12 10 7 6 6 6 7 9
11 13 14 14 13 11 11 10 8 9 10 10 10 12 13 10 6 6 4 4 5 8
11 12 12 12 10 11 10 10 9 8 6 7 10 11 12 12 7 7 5 5 3 3
Wind_Direction
174 168 170 172 164 167 167 168 165 170 174 178 177 161 145 124 109 117 102 118 114 107
173 167 167 165 163 163 158 159 162 167 169 168 172 170 151 135 130 124 109 113 123 120
166 166 159 158 160 159 153 155 160 164 167 165 167 168 153 139 140 132 130 131 131 131
167 162 153 154 158 155 151 159 161 165 165 166 167 168 159 149 152 137 137 141 144 138
161 160 153 155 155 156 157 160 162 165 165 169 167 166 164 152 157 149 146 150 149 149
162 159 155 153 155 158 157 159 161 165 168 171 163 164 168 157 157 152 148 154 159 150
161 157 152 149 151 157 157 159 163 167 168 170 162 164 167 161 158 150 152 153 153 156
155 153 149 148 152 155 158 160 163 162 165 166 165 164 171 164 159 152 148 150 150 150
152 151 149 147 150 152 154 160 162 165 165 168 168 156 169 165 159 158 155 158 140 120
154 150 151 150 152 157 157 158 164 166 167 170 164 160 154 168 153 158 159 157 151 137
153 152 152 153 156 155 158 162 165 168 169 168 164 165 161 161 152 151 155 161 156 152
159 154 155 158 159 158 159 164 168 169 170 171 154 168 162 155 151 146 153 157 160 156
160 159 161 160 160 156 159 161 160 166 175 168 158 172 165 164 153 155 147 145 144 162
159 161 162 158 154 154 151 148 151 158 165 164 153 174 176 167 168 168 156 159 154 169